User: anonymous
Location: Slidell
(30.2789°N, 89.7378°W)
Time: 23:25:53
(UTC-05:00)
Language:

Cosmos 2360 Rocket - Orbit

View from above orbital plane
View from above orbital plane
View from above satellite
View from above satellite

Ground track
Ground track

The orbit data is extracted from the following two-line orbital elements,

1 25407U 98045B   14244.74391632  .00000304  00000-0  17956-3 0  5459
2 25407 071.0140 023.6133 0009469 311.6892 144.3236 14.15663636831904
Epoch (UTC): 01 September 2014 17:51:14
Eccentricity: 0.0009469
inclination: 71.0140°
perigee height: 833 km
apogee height: 847 km
right ascension of ascending node: 23.6133°
argument of perigee: 311.6892°
revolutions per day: 14.15663636
mean anomaly at epoch: 144.3236°
orbit number at epoch: 83190

The dashed part of the orbit path shows where the satellite is in the earth's shadow,  

DLR